Hayward, WI

9:37 AM CST on February 08, 2016 (GMT -0600)
Sawyer County

Weather History for KHYR - March, 2013

Change the Weather History Date:

Friday, March 1, 2013

  Actual Average Record
Temperature  
Mean Temperature 16 °F -  
Max Temperature 26 °F 42 °F 48 °F (2004)
Min Temperature 1 °F 10 °F -18 °F (2009)
Degree Days  
Heating Degree Days 50    
Moisture  
Dew Point 11 °F    
Average Humidity 68    
Maximum Humidity 84    
Minimum Humidity 55    
Precipitation  
Precipitation 0.00 in - - ()
Sea Level Pressure  
Sea Level Pressure 30.36 in    
Wind  
Wind Speed 9 mph (NE)    
Max Wind Speed 12 mph    
Max Gust Speed 22 mph    
Visibility 10 miles    
Events      
Averages and records for this station are not official NWS values.
T = Trace of Precipitation, MM = Missing Value Source: NWS Daily Summary

Daily Weather History Graph

Daily Weather History Graph

Search for Another Location

Airport or City:

Trip Planner

Search our weather history database for the weather conditions in past years. The results will help you decide how hot, cold, wet, or windy it might be!

Date:

Astronomy

Mar. 01, 2013 Rise Set
Actual Time 6:44 AM CST 5:52 PM CST
Civil Twilight 6:14 AM CST 6:22 PM CST
Nautical Twilight 5:39 AM CST 6:57 PM CST
Astronomical Twilight 5:04 AM CST 7:32 PM CST
Moon 10:44 PM CST (3/1) 8:14 AM CST (3/1)
Length of Visible Light 12h 08m
Length of Day
11h 08m
Waning Gibbous, 83% of the Moon is Illuminated
Mar 1
Waning Gibbous
Mar 4
Last Quarter
Mar 11
New
Mar 19
First Quarter
Mar 27
Full

Hourly Weather History & Observations

Time (CST) Temp. Windchill Dew Point Humidity Pressure Visibility Wind Dir Wind Speed Gust Speed Precip Events Conditions
12:53 AM 21.9 °F 10.4 °F 14.0 °F 72% 30.30 in 10.0 mi ENE 11.5 mph 21.9 mph N/A   Overcast
1:53 AM 21.9 °F 10.4 °F 14.0 °F 72% 30.30 in 10.0 mi NE 11.5 mph 18.4 mph N/A   Overcast
2:53 AM 21.9 °F 11.7 °F 14.0 °F 72% 30.30 in 10.0 mi NE 9.2 mph - N/A   Overcast
4:53 AM 21.9 °F 11.0 °F 14.0 °F 72% 30.32 in 10.0 mi NNE 10.4 mph 18.4 mph N/A   Overcast
6:53 AM 21.0 °F 11.4 °F 12.9 °F 71% 30.35 in 10.0 mi NNE 8.1 mph - N/A   Overcast
7:53 AM 21.0 °F 9.3 °F 12.9 °F 71% 30.37 in 10.0 mi NE 11.5 mph 20.7 mph N/A   Overcast
8:53 AM 21.0 °F 9.3 °F 12.9 °F 71% 30.38 in 10.0 mi NE 11.5 mph 19.6 mph N/A   Overcast
9:53 AM 21.9 °F 12.5 °F 12.9 °F 68% 30.39 in 10.0 mi North 8.1 mph - N/A   Overcast
10:53 AM 23.0 °F 14.7 °F 12.9 °F 65% 30.40 in 10.0 mi Variable 6.9 mph 16.1 mph N/A   Overcast
11:53 AM 25.0 °F 18.1 °F 12.9 °F 60% 30.39 in 10.0 mi Variable 5.8 mph - N/A   Mostly Cloudy
12:53 PM 25.0 °F 15.5 °F 12.0 °F 58% 30.38 in 10.0 mi NNE 9.2 mph 18.4 mph N/A   Mostly Cloudy
1:09 PM 26.6 °F 19.1 °F 12.2 °F 55% 30.31 in 10.0 mi Variable 6.9 mph 18.4 mph N/A   Scattered Clouds
1:17 PM 24.8 °F 17.9 °F 12.2 °F 59% 30.31 in 10.0 mi Variable 5.8 mph - N/A   Mostly Cloudy
1:32 PM 26.6 °F 18.2 °F 14.0 °F 59% 30.30 in 10.0 mi North 8.1 mph - N/A   Scattered Clouds
1:53 PM 26.1 °F 19.4 °F 12.9 °F 58% 30.36 in 10.0 mi Variable 5.8 mph 16.1 mph N/A   Partly Cloudy
2:53 PM 25.0 °F 15.5 °F 12.0 °F 58% 30.37 in 10.0 mi NNE 9.2 mph 16.1 mph N/A   Partly Cloudy
3:53 PM 24.1 °F 16.0 °F 12.9 °F 62% 30.38 in 10.0 mi Variable 6.9 mph - N/A   Partly Cloudy
4:33 PM 23.0 °F 14.7 °F 12.2 °F 63% 30.32 in 10.0 mi North 6.9 mph 18.4 mph N/A   Mostly Cloudy
4:53 PM 21.9 °F 11.7 °F 12.0 °F 66% 30.39 in 10.0 mi NNE 9.2 mph 17.3 mph N/A   Mostly Cloudy
5:00 PM 21.2 °F 10.1 °F 12.2 °F 68% 30.32 in 10.0 mi NNE 10.4 mph 17.3 mph N/A   Scattered Clouds
5:40 PM 19.4 °F 7.9 °F 12.2 °F 74% 30.32 in 10.0 mi NE 10.4 mph 17.3 mph N/A   Mostly Cloudy
5:53 PM 19.9 °F 13.4 °F 12.0 °F 71% 30.40 in 10.0 mi Variable 4.6 mph - N/A   Mostly Cloudy
6:53 PM 19.0 °F 9.0 °F 10.9 °F 71% 30.40 in 10.0 mi NE 8.1 mph - N/A   Overcast
7:50 PM 17.6 °F 7.3 °F 10.4 °F 73% 30.33 in 10.0 mi NE 8.1 mph - N/A   Scattered Clouds
8:53 PM 16.0 °F 10.4 °F 9.0 °F 74% 30.40 in 10.0 mi Variable 3.5 mph - N/A   Clear
9:53 PM 10.9 °F - 7.0 °F 84% 30.40 in 10.0 mi Calm Calm - N/A   Clear
10:53 PM 5.0 °F - -0.0 °F 80% 30.40 in 10.0 mi Calm Calm - N/A   Clear
11:53 PM 1.0 °F - -5.1 °F 75% 30.40 in 10.0 mi Calm Calm - N/A   Clear